User: anonymous
Location: Fort Wayne
(41.1310°N, 85.1290°W)
Time: 20:33:33
(UTC-04:00)
Language:

Cosmos 1000 Rocket - Orbit

View from above orbital plane
View from above orbital plane
View from above satellite
View from above satellite

Ground track
Ground track

The orbit data is extracted from the following two-line orbital elements,

1 10777U 78034B   14207.78912240  .00000077  00000-0  62583-4 0  3098
2 10777 082.9441 296.2534 0024750 276.2952 231.8169 13.77291714824965
Epoch (UTC): 26 July 2014 18:56:20
Eccentricity: 0.0024750
inclination: 82.9441°
perigee height: 955 km
apogee height: 992 km
right ascension of ascending node: 296.2534°
argument of perigee: 276.2952°
revolutions per day: 13.77291714
mean anomaly at epoch: 231.8169°
orbit number at epoch: 82496

The dashed part of the orbit path shows where the satellite is in the earth's shadow,  

DLR